Regional Weather Roundup
Issued by NWS

Home | Current Version | Previous Version | Graphics & Text | Print | Product List | Glossary On
Versions: 1 2 3 4 5 6 7 8 9 10 11 12 13 14 15 16 17 18 19 20 21 22 23 24 25 26 27 28 29 30 31 32 33 34 35 36 37 38 39 40 41 42 43 44 45 46 47 48 49 50
000
ASUS43 KDTX 300101
RWRMI
MICHIGAN HOURLY REGIONAL WEATHER ROUNDUP
NATIONAL WEATHER SERVICE DETROIT/PONTIAC MI
900 PM EDT THU SEP 29 2016

NOTE: "FAIR" INDICATES FEW OR NO CLOUDS BELOW 12,000 FEET WITH NO
SIGNIFICANT WEATHER AND/OR OBSTRUCTION TO VISIBILITY.

MIZ047>049-052>055-059>063-066>070-074>076-081>083-300200-
SOUTHEAST LOWER MICHIGAN

CITY           SKY/WX    TMP DP  RH WIND       PRES   REMARKS
ADRIAN         RAIN      59  59 100 E14       30.16S FOG
ALMA           CLOUDY    60  58  94 NE8G16    30.27S
ANN ARBOR      CLOUDY    60  59  96 N13       30.16S
BAD AXE        CLOUDY    58  56  92 E13G20    30.30R FOG
CARO           CLOUDY    58  57  94 E8        30.27R
DETROIT CITY   RAIN      59  59 100 NE18G25   30.16F
DETROIT        LGT RAIN  60  59  96 NE20G26   30.15F
FLINT          CLOUDY    59  58  96 NE12      30.23S FOG
GROSSE ILE     RAIN      61  58  91 E9        30.16R
HILLSDALE      HVY RAIN  59  57  94 N8        30.16S
HOWELL         CLOUDY    59  58  97 NE10      30.20F

CITY           SKY/WX    TMP DP  RH WIND       PRES   REMARKS
JACKSON        LGT RAIN  59  59 100 NE12      30.18S
LAMBERTVILLE   RAIN      61  59  93 NE8G16    30.14R
LANSING        CLOUDY    58  55  90 NE14      30.22F
LAPEER         DRIZZLE   59  59 100 NE6       30.25S
MASON          CLOUDY    58  57  94 NE9G18    30.21S
MONROE         CLOUDY    61  60  96 NE13G22   30.15R
MT. CLEMENS    HVY RAIN  59  58  96 NE17      30.18F FOG
PONTIAC        DRIZZLE   58  56  93 NE15G23   30.20F FOG
PORT HURON     CLOUDY    59  57  94 E13G21    30.25R
TRI CITIES     CLOUDY    60  57  89 NE14G25   30.28S
MIDLAND        CLOUDY    60  57  90 NE8       30.28R
TROY           RAIN      60  58  92 NE14G22   30.20F
SAGINAW HB     CLOUDY    59  55  88 NE12      30.27R
$$
MIZ043>046-050>051-056>058-064>065-071>073-077>080-300200-
SOUTHWEST LOWER MICHIGAN

CITY           SKY/WX    TMP DP  RH WIND       PRES   REMARKS
BATTLE CREEK   CLOUDY    59  58  96 NE10      30.20F
BENTON HARBOR  CLOUDY    61  55  81 NE9       30.21R
BIG RAPIDS     CLOUDY    60  56  88 NE10G16   30.29S
COLDWATER      LGT RAIN  59  59  99 N9        30.17S
FREMONT        DRIZZLE   60  53  79 NE10      30.27S
HOLLAND        LGT RAIN  61  55  81 NE10      30.24R
GRAND RAPIDS   LGT RAIN  58  55  90 NE13      30.25R
IONIA          CLOUDY    57  55  94 NE10G18   30.23S
KALAMAZOO      LGT RAIN  59  56  89 NE9       30.21S
LUDINGTON      CLOUDY    61  52  71 NE8       30.30R
MARSHALL       CLOUDY    59  58  97 NE6       30.18F
MOUNT PLEASANT DRIZZLE   58  57  96 NE8       30.27S
MUSKEGON       LGT RAIN  61  55  81 NE8       30.26S
SOUTH HAVEN    LGT RAIN  61  58  90 NE8       30.22R
$$
MIZ016>042-300200-
NORTHERN LOWER MICHIGAN

CITY           SKY/WX    TMP DP  RH WIND       PRES   REMARKS
ALPENA         CLOUDY    62  55  77 NE10      30.38S
BEAVER ISLAND  CLEAR     61  53  75 E6        30.40S
BELLAIRE       CLEAR     59  53  80 N5        30.35F
CADILLAC       LGT RAIN  57  53  86 NE12G17   30.32S
CHARLEVOIX     CLEAR     61  52  73 NE5       30.41S
FRANKFORT      MOCLDY    63  51  67 NE8       30.33S
GAYLORD        CLOUDY    60  52  74 NE9       30.37S
GRAYLING       CLOUDY    60  53  77 NE13      30.35S
HARBOR SPRINGS CLEAR     58  52  78 N3        30.38S
HOUGHTON LAKE  CLOUDY    57  54  89 NE13      30.33S
MANISTEE       CLOUDY    62  53  72 E14G20    30.31S
OSCODA         CLOUDY    61  55  81 NE17      30.33R
PELLSTON       CLEAR     53  50  89 NE3       30.39S
ROGERS CITY    CLOUDY    63  53  69 E16G24    30.41R
TRAVERSE CITY  CLOUDY    63  52  67 NE7       30.34S
$$
MIZ007>008-015-300200-
EASTERN UPPER MICHIGAN

CITY           SKY/WX    TMP DP  RH WIND       PRES   REMARKS
KINROSS        CLEAR     60  54  80 E6        30.43R
MACKINAC ISLAN CLEAR     60  55  82 E7        30.40S
NEWBERRY       CLEAR     57  55  93 N5        30.41S
S. S. MARIE    CLEAR     62  50  64 E5        30.42R
MUNISING         N/A     59  58  96 NW9       30.43S
$$
MIZ004>006-011>014-085-300200-
CENTRAL UPPER MICHIGAN

CITY           SKY/WX    TMP DP  RH WIND       PRES   REMARKS
MANISTIQUE     CLEAR     54  52  92 CALM      30.41R
ESCANABA       CLEAR     58  54  86 N6        30.41R
MENOMINEE      PTCLDY    61  55  81 NE9       30.39R
SAWYER-GWINN   PTCLDY    54  52  94 NE10      30.45S
$$
MIZ001>003-009>011-084-300200-
WESTERN UPPER MICHIGAN

CITY           SKY/WX    TMP DP  RH WIND       PRES   REMARKS
IRON MOUNTAIN  CLEAR     57  49  74 N8        30.42R
HOUGHTON       CLEAR     49  47  93 NE3       30.46S
COPPER HARBOR    N/A     58  55  90 NE6       30.47S
IRONWOOD       MOCLDY    54  52  93 E7        30.47R
$$

ABBREVIATIONS USED IN REMARKS
   TC - TEMPERATURE IN CELSIUS
  WCI - WIND CHILL INDEX
   HX - HEAT INDEX
  VSB - VISIBILITY




USA.gov is the U.S. government's official web portal to all federal, state and local government web resources and services.